• Join FlightAware (Why Join?)
  • Login
  • US Flag GB Flag 
09:00 EDT


 

Airport Tracker/Info


-or-


 

Live Flight TrackerFlight Track Log ✈ KAP927 ✈ 03-May-2013 ✈ KALB - KOGS

Flight Track Log - Related Links

Times and Time Zones

All times are in EDT time to prevent confusion due to time zone crossing. See the KAP927 flight status page for this flight to view local times or setup timezone preferences in your user account.

Time Position Orientation Groundspeed Altitude Reporting Facility
EDT Latitude Longitude Course Direction KTS MPH feet Rate Location/Type
18:30 42.7169 -73.8275 325° Northwest 118 136 1,400  Level Boston Center
18:31 42.7439 -73.8536 325° Northwest 131 151 1,800 360 Climbing Boston Center
18:32 42.7747 -73.8769 331° Northwest 139 160 2,200 480 Climbing Boston Center
18:33 42.8036 -73.9089 321° Northwest 137 158 2,800 540 Climbing Boston Center
18:34 42.8367 -73.9322 333° Northwest 134 154 3,300 480 Climbing Boston Center
18:35 42.8739 -73.9586 333° Northwest 135 155 3,900 480 Climbing Boston Center
18:36 42.9089 -73.9906 326° Northwest 137 158 4,400 480 Climbing Boston Center
18:37 42.9439 -74.0200 328° Northwest 139 160 5,000 540 Climbing Boston Center
18:38 42.9767 -74.0464 330° Northwest 136 157 5,500 480 Climbing Boston Center
18:39 43.0097 -74.0728 330° Northwest 137 158 6,000 540 Climbing Boston Center
18:40 43.0428 -74.0992 330° Northwest 140 161 6,600 540 Climbing Boston Center
18:41 43.0756 -74.1286 327° Northwest 143 165 7,100 480 Climbing Boston Center
18:42 43.1064 -74.1578 325° Northwest 143 165 7,600 540 Climbing Boston Center
18:43 43.1417 -74.1817 334° Northwest 138 159 8,200 540 Climbing Boston Center
18:44 43.1558 -74.1933 329° Northwest 150 173 8,500 480 Climbing Boston Center
18:45 43.1889 -74.2169 332° Northwest 150 173 9,000 480 Climbing Boston Center
18:46 43.2219 -74.2464 327° Northwest 140 161 9,500 420 Climbing Boston Center
18:47 43.2547 -74.2731 329° Northwest 140 161 9,900 420 Climbing Boston Center
18:48 43.2917 -74.3028 330° Northwest 140 161 10,400 300 Climbing Boston Center
18:49 43.3247 -74.3294 330° Northwest 140 161 10,600 60 Climbing Boston Center
18:50 43.3678 -74.3650 329° Northwest 158 182 10,600 -60 Level Boston Center
18:51 43.4092 -74.3950 332° Northwest 169 194 10,500 -120 Descending Boston Center
18:52 43.4481 -74.4278 329° Northwest 169 194 10,400  Descending Boston Center
18:53 43.4872 -74.4606 329° Northwest 163 188 10,500  Climbing Boston Center
18:54 43.5281 -74.4933 330° Northwest 163 188 10,500  Level Boston Center
18:55 43.5733 -74.5322 328° Northwest 163 188 10,500 -60 Level Boston Center
18:56 43.6144 -74.5650 330° Northwest 163 188 10,400  Descending Boston Center
18:57 43.6533 -74.5981 328° Northwest 163 188 10,500  Climbing Boston Center
18:58 43.6925 -74.6311 329° Northwest 163 188 10,500  Level Boston Center
18:59 43.7333 -74.6611 332° Northwest 163 188 10,600  Climbing Boston Center
19:00 43.7703 -74.6969 325° Northwest 163 188 10,600 -60 Level Boston Center
19:01 43.8114 -74.7303 330° Northwest 163 188 10,500 -60 Descending Boston Center
19:02 43.8503 -74.7633 328° Northwest 163 188 10,500  Level Boston Center
19:03 43.8892 -74.7967 328° Northwest 163 188 10,500 -300 Level Boston Center
19:04 43.9322 -74.8300 331° Northwest 169 194 10,000 -540 Descending Boston Center
19:05 43.9775 -74.8636 332° Northwest 169 194 9,500 -540 Descending Boston Center
19:06 44.0247 -74.8972 333° Northwest 181 208 9,000 -600 Descending Boston Center
19:07 44.0675 -74.9336 329° Northwest 181 208 8,400 -600 Descending Boston Center
19:08 44.1103 -74.9761 325° Northwest 181 208 7,900 -540 Descending Boston Center
19:09 44.1556 -75.0125 330° Northwest 186 214 7,400 -600 Descending Boston Center
19:10 44.2006 -75.0494 330° Northwest 186 214 6,800 -660 Descending Boston Center
19:11 44.2456 -75.0889 328° Northwest 186 214 6,100 -660 Descending Boston Center
19:12 44.2906 -75.1228 332° Northwest 186 214 5,500 -660 Descending Boston Center
19:13 44.3353 -75.1628 327° Northwest 186 214 4,800 -720 Descending Boston Center
19:14 44.3822 -75.2056 327° Northwest 192 221 4,100 -660 Descending Boston Center
19:15 44.4253 -75.2425 329° Northwest 192 221 3,500 -600 Descending Boston Center
19:16 44.4597 -75.2731 328° Northwest 187 215 3,000 -540 Descending Boston Center